CW1490 Weather Reports


time (UTC)temp
F
wind
direction
speed
knots
gust
knots
rain 1hr
in
rain 24hr
in
rain mn
in
humidity
%
barometer
mb
20260505052004 54 225 2.6 9.6 0.00 0.00 0.00 68 1009.3
20260505051522 54 173 2.6 9.6 0.00 0.00 0.00 67 1009.3
20260505051005 55 231 3.5 8.7 0.00 0.00 0.00 66 1009.4
20260505050503 55 212 1.7 5.2 0.00 0.00 0.00 65 1009.4
20260505041510 56 224 4.3 8.7 0.00 0.00 0.00 63 1009.2
20260505041006 57 227 4.3 8.7 0.00 0.00 0.00 62 1009.2
20260505040506 57 212 4.3 8.7 0.00 0.00 0.00 62 1009.2
20260505040016 57 191 3.5 8.7 0.00 0.00 0.00 62 1009.2
20260505035507 56 219 3.5 13.9 0.00 0.00 0.00 62 1009.1
20260505035007 57 207 3.5 13.9 0.00 0.00 0.00 61 1009.0
20260505034517 57 221 3.5 8.7 0.00 0.00 0.00 60 1008.9
20260505034006 58 218 4.3 9.6 0.00 0.00 0.00 60 1008.9
20260505033507 58 211 6.1 9.6 0.00 0.00 0.00 59 1008.9
20260505033023 58 207 6.1 9.6 0.00 0.00 0.00 60 1008.9
20260505032508 58 218 4.3 12.2 0.00 0.00 0.00 59 1008.9
20260505032007 59 227 4.3 13.0 0.00 0.00 0.00 58 1008.8
20260505031526 59 189 6.1 13.0 0.00 0.00 0.00 57 1008.7
20260505031003 59 213 7.0 15.6 0.00 0.00 0.00 57 1008.7
20260505030504 59 201 7.0 15.6 0.00 0.00 0.00 57 1008.7
20260505030012 59 209 8.7 13.9 0.00 0.00 0.00 56 1008.7
20260505025514 60 202 7.8 15.6 0.00 0.00 0.00 56 1008.7
20260505025007 60 223 7.8 14.8 0.00 0.00 0.00 56 1008.7
20260505024517 60 207 8.7 13.9 0.00 0.00 0.00 56 1008.7
20260505024010 60 211 6.1 10.4 0.00 0.00 0.00 56 1008.7
20260505023505 60 219 6.1 14.8 0.00 0.00 0.00 55 1008.7
20260505023022 60 217 7.8 14.8 0.00 0.00 0.00 55 1008.7
20260505022506 60 208 5.2 10.4 0.00 0.00 0.00 55 1008.7
20260505022010 60 219 5.2 13.9 0.00 0.00 0.00 54 1008.8
20260505021520 61 227 7.0 13.9 0.00 0.00 0.00 53 1008.7
20260505021006 61 213 7.8 13.9 0.00 0.00 0.00 53 1008.7
20260505020508 61 219 7.0 12.2 0.00 0.00 0.00 53 1008.7
20260505020023 61 218 7.0 15.6 0.00 0.00 0.00 52 1008.6
20260505015508 61 238 7.8 15.6 0.00 0.00 0.00 52 1008.5
20260505015005 60 182 7.8 14.8 0.00 0.00 0.00 54 1008.5
20260505014521 60 198 6.1 14.8 0.00 0.00 0.00 53 1008.5
20260505014007 59 216 7.0 12.2 0.00 0.00 0.00 55 1008.5
20260505013506 57 207 6.1 10.4 0.00 0.00 0.00 57 1008.5
20260505013020 56 196 5.2 9.6 0.00 0.00 0.00 60 1008.5
20260505012506 55 221 5.2 7.8 0.00 0.00 0.00 67 1008.4
20260505012010 55 219 5.2 7.8 0.00 0.00 0.00 67 1008.2
20260505011522 55 214 2.6 6.1 0.00 0.00 0.00 66 1008.1
20260505011006 56 218 3.5 7.0 0.00 0.00 0.00 65 1008.1
20260505010507 56 221 4.3 7.0 0.00 0.00 0.00 63 1008.1
20260505010023 57 195 3.5 6.1 0.00 0.00 0.00 60 1008.0
20260505005508 58 212 3.5 6.1 0.00 0.00 0.00 60 1007.9
20260505005008 58 218 3.5 5.2 0.00 0.00 0.00 59 1007.9
20260505004522 59 198 2.6 6.1 0.00 0.00 0.00 58 1007.8
20260505004008 59 218 3.5 6.1 0.00 0.00 0.00 54 1007.8
20260505003503 60 216 3.5 7.0 0.00 0.00 0.00 55 1007.7
20260505003019 61 216 3.5 7.0 0.00 0.00 0.00 52 1007.6
20260505002508 62 193 3.5 7.0 0.00 0.00 0.00 50 1007.5
20260505002008 62 236 4.3 6.1 0.00 0.00 0.00 50 1007.5
20260505001524 62 242 3.5 6.1 0.00 0.00 0.00 50 1007.4
20260505001007 63 218 3.5 7.8 0.00 0.00 0.00 51 1007.4
20260505000506 64 202 5.2 7.8 0.00 0.00 0.00 47 1007.3
20260505000031 64 221 4.3 8.7 0.00 0.00 0.00 46 1007.2
20260504235507 64 215 5.2 8.7 0.00 0.00 0.00 44 1007.1
20260504235009 65 218 4.3 7.0 0.00 0.00 0.00 45 1007.0
20260504234524 65 213 3.5 7.0 0.00 0.00 0.00 43 1006.8
20260504234010 65 213 3.5 7.0 0.00 0.00 0.00 42 1006.8
20260504233507 66 221 3.5 7.0 0.00 0.00 0.00 41 1006.7
20260504233025 67 218 3.5 7.8 0.00 0.00 0.00 40 1006.6
20260504232510 67 200 4.3 7.8 0.00 0.00 0.00 40 1006.5
20260504232010 68 201 2.6 7.8 0.00 0.00 0.00 39 1006.4
20260504231522 68 223 3.5 10.4 0.00 0.00 0.00 38 1006.3
20260504231007 69 223 6.1 10.4 0.00 0.00 0.00 37 1006.3
20260504230507 69 207 7.0 10.4 0.00 0.00 0.00 36 1006.3
20260504230024 69 219 6.1 11.3 0.00 0.00 0.00 36 1006.3
20260504225510 69 218 5.2 12.2 0.00 0.00 0.00 37 1006.2
20260504225009 69 221 6.1 12.2 0.00 0.00 0.00 35 1006.1
20260504224528 70 245 6.1 13.9 0.00 0.00 0.00 35 1006.1
20260504224009 70 221 7.0 14.8 0.00 0.00 0.00 34 1006.0
20260504223509 70 250 5.2 14.8 0.00 0.00 0.00 35 1005.9
20260504223025 70 201 2.6 13.9 0.00 0.00 0.00 36 1006.0
20260504222509 70 234 7.0 20.9 0.00 0.00 0.00 36 1006.0
20260504222008 70 249 7.8 20.9 0.00 0.00 0.00 36 1005.9
20260504221528 70 249 8.7 17.4 0.00 0.00 0.00 34 1005.8
20260504221011 70 245 8.7 16.5 0.00 0.00 0.00 35 1005.9
20260504220509 70 219 11.3 16.5 0.00 0.00 0.00 34 1005.9
20260504220024 70 244 6.1 13.9 0.00 0.00 0.00 34 1005.8
20260504215510 70 223 6.1 14.8 0.00 0.00 0.00 35 1005.8
20260504215009 71 202 5.2 19.1 0.00 0.00 0.00 34 1005.9
20260504214537 71 205 11.3 19.1 0.00 0.00 0.00 35 1005.9
20260504214012 70 231 6.1 17.4 0.00 0.00 0.00 35 1006.0
20260504213509 70 198 6.1 19.1 0.00 0.00 0.00 37 1006.1
20260504213010 70 215 10.4 20.9 0.00 0.00 0.00 34 1006.0
20260504212502 70 270 11.3 20.0 0.00 0.00 0.00 34 1006.1
20260504212005 70 189 8.7 17.4 0.00 0.00 0.00 33 1006.1
20260504211512 71 227 10.4 16.5 0.00 0.00 0.00 34 1006.1
20260504211001 71 219 9.6 16.5 0.00 0.00 0.00 34 1006.1
20260504210503 71 221 7.0 19.1 0.00 0.00 0.00 35 1006.1
20260504210007 71 232 9.6 21.7 0.00 0.00 0.00 35 1006.2
20260504205503 71 227 14.8 21.7 0.00 0.00 0.00 35 1006.1
20260504205004 71 245 6.1 21.7 0.00 0.00 0.00 35 1006.2
20260504204505 71 223 10.4 20.9 0.00 0.00 0.00 34 1006.2
20260504204004 71 210 5.2 11.3 0.00 0.00 0.00 37 1006.2
20260504203502 70 288 4.3 16.5 0.00 0.00 0.00 37 1006.3
20260504203007 70 225 7.0 16.5 0.00 0.00 0.00 36 1006.4
20260504202511 70 259 8.7 20.9 0.00 0.00 0.00 34 1006.4
20260504202004 70 215 8.7 23.5 0.00 0.00 0.00 35 1006.4
20260504201525 70 225 7.0 29.5 0.00 0.00 0.00 33 1006.3
20260504201003 71 236 17.4 29.5 0.00 0.00 0.00 33 1006.3
20260504200508 71 229 7.8 28.7 0.00 0.00 0.00 35 1006.4
20260504200005 71 269 5.2 30.4 0.00 0.00 0.00 37 1006.4
20260504195503 71 186 14.8 30.4 0.00 0.00 0.00 34 1006.2
20260504195007 70 203 10.4 19.1 0.00 0.00 0.00 35 1006.4
20260504194520 70 207 8.7 19.1 0.00 0.00 0.00 35 1006.5
20260504194003 70 257 1.7 22.6 0.00 0.00 0.00 38 1006.5
20260504193506 70 229 7.8 22.6 0.00 0.00 0.00 33 1006.5
20260504193003 70 227 9.6 20.0 0.00 0.00 0.00 36 1006.6
20260504192503 69 267 4.3 18.2 0.00 0.00 0.00 35 1006.6
20260504192007 69 156 5.2 20.9 0.00 0.00 0.00 35 1006.5
20260504191507 70 227 11.3 27.8 0.00 0.00 0.00 34 1006.7
20260504191006 70 221 10.4 27.8 0.00 0.00 0.00 36 1006.5
20260504190508 70 219 9.6 27.8 0.00 0.00 0.00 35 1006.6
20260504190015 70 198 18.2 27.8 0.00 0.00 0.00 35 1006.6
20260504185507 69 207 15.6 25.2 0.00 0.00 0.00 36 1006.6
20260504185002 69 229 13.0 25.2 0.00 0.00 0.00 34 1006.8
20260504184503 69 243 10.4 25.2 0.00 0.00 0.00 35 1006.9
20260504184003 70 232 13.0 22.6 0.00 0.00 0.00 34 1006.8
20260504183501 70 255 5.2 21.7 0.00 0.00 0.00 36 1006.9
20260504183007 70 188 8.7 20.0 0.00 0.00 0.00 35 1006.8
20260504182503 71 196 8.7 30.4 0.00 0.00 0.00 34 1006.8
20260504182013 71 237 20.0 30.4 0.00 0.00 0.00 35 1006.8
20260504181508 70 189 3.5 25.2 0.00 0.00 0.00 39 1006.8
20260504181004 70 250 18.2 25.2 0.00 0.00 0.00 33 1007.0
20260504180504 70 280 5.2 18.2 0.00 0.00 0.00 35 1006.9
20260504180028 70 242 8.7 25.2 0.00 0.00 0.00 36 1007.0
20260504175507 70 280 5.2 26.9 0.00 0.00 0.00 43 1007.1
20260504175005 69 243 16.5 26.9 0.00 0.00 0.00 35 1007.2
20260504174516 68 261 7.0 22.6 0.00 0.00 0.00 38 1007.2
20260504174007 68 265 8.7 22.6 0.00 0.00 0.00 39 1007.2
20260504173505 68 215 11.3 20.9 0.00 0.00 0.00 36 1007.2
20260504173003 69 272 7.0 18.2 0.00 0.00 0.00 37 1007.1
20260504172507 70 250 5.2 17.4 0.00 0.00 0.00 43 1007.2
20260504172001 68 87 4.3 17.4 0.00 0.00 0.00 34 1007.3
20260504171507 68 270 7.8 14.8 0.00 0.00 0.00 38 1007.4
20260504171003 67 51 4.3 19.1 0.00 0.00 0.00 39 1007.5
20260504170503 66 266 6.1 19.1 0.00 0.00 0.00 40 1007.6
20260504151010 66 223 15.6 27.8 0.00 0.00 0.00 39 1008.3
20260504150511 66 261 16.5 26.9 0.00 0.00 0.00 37 1008.3
20260504141009 63 265 12.2 26.1 0.00 0.00 0.00 41 1008.6
20260504140507 63 196 11.3 23.5 0.00 0.00 0.00 41 1008.6
20260504130511 56 191 8.7 20.0 0.00 0.00 0.00 51 1009.3
20260504110504 43 221 3.5 7.0 0.00 0.00 0.00 76 1010.3
20260504100504 40 227 4.3 6.1 0.00 0.00 0.00 85 1010.0
20260504082006 41 205 3.5 5.2 0.00 0.00 0.00 86 1010.3
20260504081527 41 178 0.9 2.6 0.00 0.00 0.00 85 1010.2
20260504081002 41 238 0.9 3.5 0.00 0.00 0.00 85 1010.2
20260504080507 41 243 1.7 3.5 0.00 0.00 0.00 84 1010.2